Regional Weather Roundup
Issued by NWS

Home | Current Version | Previous Version | Graphics & Text | Print | Product List | Glossary On
Versions: 1 2 3 4 5 6 7 8 9 10 11 12 13 14 15 16 17 18 19 20 21 22 23 24 25 26 27 28 29 30 31 32 33 34 35 36 37 38 39 40 41 42 43 44 45 46 47 48 49 50
000
ASUS43 KLSX 210159
RWRMO

WEATHER SUMMARY FOR MISSOURI
NATIONAL WEATHER SERVICE SPRINGFIELD MO
900 PM CDT MON OCT 20 2014

NOTE: "FAIR" INDICATES FEW OR NO CLOUDS BELOW 12,000 FEET WITH NO
       SIGNIFICANT WEATHER AND/OR OBSTRUCTIONS TO VISIBILITY.
       CURRENT SKY AND/OR WEATHER CONDITIONS ARE NOT AVAILABLE FOR
       CHILLICOTHE AND FARMINGTON.

MOZ001>031-035>038-043-044-053-054-210300-
...NORTHERN AND WESTERN MISSOURI...

CITY           SKY/WX    TMP DP  RH WIND       PRES   REMARKS
KANSAS CTY INT CLEAR     62  44  51 NE3       30.05S
KANSAS C DTWN  CLEAR     58  49  72 CALM      30.05R
LEE`S SUMMIT   CLEAR     62  43  49 CALM      30.05S
ST JOSEPH      CLEAR     48  42  80 N5        30.05S
KIRKSVILLE     CLEAR     47  44  90 W3        30.04R

$$
MOZ066>068-077>081-088>096-101>105-210300-
...SOUTHWEST MISSOURI...

CITY           SKY/WX    TMP DP  RH WIND       PRES   REMARKS
SPRINGFIELD    CLEAR     58  53  84 CALM      30.04R
JOPLIN         CLEAR     58  55  90 S6        30.04S

$$
MOZ032>034-039>042-045>050-055>058-069>072-210300-
...CENTRAL MISSOURI...

CITY           SKY/WX    TMP DP  RH WIND       PRES   REMARKS
COLUMBIA       CLEAR     58  43  57 N5        30.04S
JEFFERSON CITY CLEAR     54  45  71 CALM      30.03S
ROLLA          CLEAR     54  43  66 CALM      30.02S
SEDALIA        CLEAR     62  42  47 NW3       30.05S
WHITEMAN AFB   CLEAR     56  46  68 SW3       30.04S
OSAGE BEACH    CLEAR     54  46  76 N3        30.04R

$$
MOZ051-052-059>065-210300-
...EAST CENTRAL MISSOURI...

CITY           SKY/WX    TMP DP  RH WIND       PRES   REMARKS
ST LOUIS INTL  CLEAR     60  44  55 NW5       30.02R
SPIRIT OF STL  CLEAR     51  47  86 CALM      30.01R
ST CHARLES     CLEAR     55  49  80 NW3       30.01R

$$
MOZ072>076-082>087-097>100-106>115-210300-
...SOUTH CENTRAL AND SOUTHEAST MISSOURI...

CITY           SKY/WX    TMP DP  RH WIND       PRES   REMARKS
CAPE GIRARDEAU CLEAR     57  53  86 CALM      30.00R
FARMINGTON     CLEAR     63  43  48 NW5       30.04R
WEST PLAINS    CLEAR     57  55  93 CALM      30.04R

$$


USA.gov is the U.S. government's official web portal to all federal, state and local government web resources and services.